Temp_Advection
nan nan nan nan nan nan nan nan nan nan nan nan nan nan nan nan nan nan nan nan nan nan nan nan nan nan nan nan nan nan nan nan nan nan nan nan nan nan nan nan nan nan nan nan
nan -2 -4 -1 -0 0 -0 -1 -2 -1 1 1 1 0 -1 -1 0 0 0 -0 -0 0 0 0 1 1 1 1 1 1 0 0 -0 -0 -1 -1 -1 -0 0 0 0 0 -1 nan
nan -3 -1 0 0 -1 0 -1 -1 -0 0 0 1 0 -1 -1 0 1 1 0 -0 -0 0 0 1 1 0 1 1 1 1 1 0 -0 -0 -0 -0 -0 0 0 0 -0 -1 nan
nan -1 0 0 -0 -1 -1 -1 0 0 1 1 1 -0 -2 -1 -0 -0 0 0 -0 -1 -0 0 1 1 0 -0 0 0 1 0 0 -0 -0 -0 -0 -0 -0 0 0 -0 -0 nan
nan -0 -0 -0 -1 -0 -1 -0 1 1 1 0 0 -1 -2 -1 -0 -1 -0 0 -0 0 0 0 0 1 1 1 0 -0 0 -0 -0 0 1 -0 -0 -0 0 0 0 1 1 nan
nan -2 -1 -1 -0 0 1 1 1 1 2 0 -1 -1 -1 -1 -1 -1 -0 0 0 0 0 1 1 0 0 0 0 1 0 0 0 0 -0 0 -0 1 1 0 1 1 1 nan
nan -0 -1 -0 -0 1 1 2 1 1 -0 -2 -2 -0 -2 -1 -1 0 -0 0 1 1 1 1 0 -0 -0 0 1 1 1 1 0 0 0 0 1 2 1 1 1 1 1 nan
nan 0 -0 0 -0 0 0 1 -0 -1 -2 -2 -0 -1 -3 -1 0 -0 0 -0 0 0 1 0 0 0 0 1 0 1 1 0 0 0 1 1 2 1 1 1 1 1 0 nan
nan 0 -2 -1 -0 -0 1 -0 0 -0 -1 -1 -1 -1 -1 -0 0 0 0 0 -0 0 0 0 0 0 -0 -0 0 0 0 -0 -0 0 1 1 1 1 1 0 0 0 1 nan
nan -0 -0 -1 0 0 -1 -1 2 1 0 -2 -2 -1 -1 1 1 1 -1 -0 -0 -0 -0 -0 0 0 -0 -0 -0 -0 -0 -0 -0 0 1 1 1 1 0 0 0 1 1 nan
nan -0 -1 -0 0 -0 -0 -0 -0 -1 -1 -0 -1 -2 -0 -1 -0 1 -0 -0 -0 -0 -0 -0 -0 -0 -0 -0 -0 -0 -0 -0 -0 0 0 0 0 1 1 1 1 0 1 nan
nan -0 -1 -1 -0 0 -1 -0 -0 -0 -1 -0 -0 -1 -0 -0 0 -0 -0 -0 -0 -0 -0 -0 0 0 -0 -0 -0 -0 -0 -0 -0 -0 0 0 0 0 0 0 0 1 1 nan
nan -0 -1 0 0 -0 -0 -0 -0 -0 0 -0 -1 -0 1 1 -0 -0 -0 -0 -0 -0 -0 -0 -0 0 -0 -0 -0 -0 -0 -0 -0 -0 -0 0 -0 -0 1 1 1 1 0 nan
nan -0 -0 -0 -0 -0 -0 0 -0 -1 -0 -1 -0 -0 0 -1 -1 -0 0 0 0 -0 -1 -0 -0 0 0 -0 -0 -0 -0 -0 -0 -0 -0 -0 -0 -0 0 0 0 1 1 nan
nan -0 -1 -1 0 0 -0 -0 -0 0 0 -0 -1 -2 -1 -0 -0 0 0 0 0 0 0 -0 -0 -0 -0 0 0 0 -0 -0 -0 -0 -0 -1 -1 -0 0 0 0 0 1 nan
nan 0 -1 -1 -2 -0 -0 -0 -0 -0 -0 -0 -0 -1 -1 -0 0 0 0 0 0 0 0 0 -0 -0 -0 -0 0 0 0 0 -0 -0 -0 -0 -1 -1 1 1 -0 0 0 nan
nan 0 -0 -1 -1 -0 -0 -2 -1 -0 -0 0 -1 -2 -1 -0 -0 0 0 0 0 0 0 0 0 -0 -0 -0 -0 -0 0 0 0 0 0 -0 -1 -1 -0 0 0 -0 -0 nan
nan 1 0 -0 -0 -1 -1 -0 0 -0 -1 -0 -0 -1 -0 -0 -0 -0 -0 -0 -0 -0 -0 -0 0 0 0 0 -0 -0 -0 -0 -0 0 0 1 0 -1 -1 0 0 0 0 nan
nan 1 0 -0 -1 -1 -1 -0 0 0 -1 -0 -0 -0 -0 -0 -1 -0 0 -1 -1 -1 -1 -0 0 0 -0 -0 -0 -0 -0 -0 -0 -0 0 0 0 -0 -2 -0 0 0 0 nan
nan 1 0 0 -0 -1 -0 -0 0 0 -1 -0 -0 -0 -0 -0 -1 -1 -0 -0 -0 -0 -0 -1 -0 0 -0 -0 -1 -0 -0 -0 -0 -0 0 0 0 0 -1 -1 0 0 1 nan
nan 0 -0 -0 -1 -1 -1 -0 0 0 -1 -1 -1 -1 -1 -0 -0 -1 -1 -0 -0 0 0 -0 -0 -0 0 -0 -0 -0 -0 -0 0 -0 0 0 -0 -0 -1 -1 0 1 1 nan
nan 0 0 0 -0 -2 -1 -0 -0 -0 -0 -1 -1 -0 -0 -0 -0 -0 -1 -1 -0 -0 -0 0 0 -0 0 0 0 -0 -0 0 0 0 0 0 0 0 -1 -2 0 1 1 nan
nan 0 0 0 -1 -1 -0 -1 0 0 0 -0 -0 -0 -0 -1 -1 -0 -0 -1 -1 -1 -0 -0 -0 -0 0 0 0 0 0 0 0 1 1 -0 -1 -0 -0 -1 -0 2 1 nan
nan 0 0 -0 -1 -0 0 -0 -0 -0 0 0 0 -0 -0 -1 -1 -0 -0 -1 -1 -2 -1 -0 -0 0 0 0 0 0 1 1 0 1 1 -1 -1 -0 -1 -0 0 1 1 nan
nan -0 0 -1 -1 -0 -0 -0 -0 0 0 0 -0 -0 -0 -0 -1 -1 -1 -1 -1 -1 -2 -1 -0 0 0 0 0 0 0 1 1 1 1 1 -0 -1 -1 -1 1 2 1 nan
nan nan nan nan nan nan nan nan nan nan nan nan nan nan nan nan nan nan nan nan nan nan nan nan nan nan nan nan nan nan nan nan nan nan nan nan nan nan nan nan nan nan nan nan
Wind_Speed
30 17 20 29 29 24 28 30 30 24 22 27 28 25 24 25 24 20 25 27 26 31 32 31 26 24 29 34 36 34 33 33 32 31 30 28 29 26 28 28 30 30 30 29
24 26 31 26 27 28 27 29 28 25 18 19 19 21 21 22 25 25 25 24 23 23 26 29 30 23 24 31 34 36 33 32 33 30 29 27 28 27 27 29 31 33 32 31
27 30 30 30 28 28 28 26 25 17 18 14 12 20 23 22 25 28 27 28 28 28 27 27 29 26 22 24 27 30 31 31 31 31 28 27 26 27 28 33 32 33 34 33
26 30 26 30 29 28 27 24 23 19 19 18 22 20 23 23 24 23 27 29 28 31 30 28 28 30 27 24 24 27 29 30 32 33 33 33 33 34 36 35 33 31 36 36
23 27 30 25 27 28 29 22 22 25 21 20 19 14 16 19 23 24 25 30 32 32 28 26 26 26 26 27 27 23 24 27 30 33 37 38 41 36 34 35 33 35 34 37
22 14 16 27 24 24 26 24 20 18 20 19 28 22 21 19 20 21 23 25 25 25 25 23 21 22 25 27 30 28 28 27 29 34 36 41 40 41 37 35 33 34 36 37
14 15 18 10 20 26 16 18 9 11 9 16 23 23 21 15 22 17 7 15 15 12 15 12 17 22 24 24 24 25 24 25 25 29 34 37 39 38 39 34 36 36 37 39
5 13 20 15 15 21 21 21 8 15 17 21 23 23 24 24 26 2 7 4 3 7 11 9 11 15 15 15 16 21 24 24 26 28 29 33 36 36 39 36 36 35 35 37
8 1 15 8 4 7 18 21 23 20 16 14 16 26 25 25 14 9 7 6 5 1 3 1 6 7 8 11 11 13 15 17 19 22 25 27 27 34 33 36 36 37 35 34
8 9 3 7 2 6 8 12 17 10 9 19 13 18 15 19 26 10 10 7 4 3 3 3 5 5 6 7 7 9 12 14 14 16 19 20 21 25 27 30 31 33 35 33
12 7 8 11 3 3 5 3 4 6 13 9 17 18 16 12 8 11 12 8 7 4 2 1 3 4 5 5 5 5 7 10 13 15 18 19 21 22 25 27 31 32 32 36
8 6 11 9 7 4 10 4 3 3 5 9 9 15 8 11 7 7 10 7 5 3 3 3 4 4 6 7 6 6 6 5 7 10 13 15 22 24 26 28 30 30 31 35
9 3 8 4 5 1 5 2 3 3 3 5 5 7 10 10 7 7 7 7 8 9 9 7 5 5 7 9 9 8 8 9 8 8 10 12 16 21 27 29 30 32 31 34
5 8 10 10 7 7 12 12 7 7 4 10 9 17 15 16 10 12 8 11 13 17 16 11 10 10 9 10 11 11 10 10 10 10 9 11 11 14 18 21 28 33 34 35
5 6 14 15 18 17 18 17 16 16 14 13 17 23 21 16 15 17 18 18 19 16 14 16 18 17 15 13 13 12 12 12 13 12 11 11 15 21 22 23 27 30 35 35
5 5 14 15 17 17 17 17 18 19 19 19 21 22 22 25 23 19 20 18 17 14 16 17 17 16 17 16 15 14 14 14 14 14 14 13 14 17 19 22 22 26 32 34
14 9 8 14 12 13 13 17 14 16 18 19 20 21 21 18 18 21 22 22 20 21 22 22 21 20 19 17 17 17 17 18 17 16 16 16 16 18 17 19 21 26 27 32
16 13 8 9 13 12 6 4 9 13 16 17 18 17 18 19 23 23 21 21 22 22 22 22 22 20 18 18 20 20 21 20 20 18 17 17 17 20 17 18 20 22 27 32
11 11 5 5 10 15 18 10 5 12 14 13 13 12 15 16 19 16 15 10 14 15 19 18 19 18 21 23 23 23 23 22 21 21 19 17 17 19 24 18 20 20 22 28
6 8 8 9 8 7 2 5 8 8 13 4 7 8 12 17 13 15 29 26 24 22 22 25 22 22 24 26 26 26 26 26 25 23 22 20 19 19 21 23 19 20 22 24
4 4 11 12 12 10 9 11 14 9 9 22 18 22 26 19 19 35 35 35 34 33 31 30 32 33 31 29 29 29 29 29 26 24 24 22 20 19 20 25 23 19 21 22
11 9 9 6 8 13 9 9 8 15 29 31 33 34 35 34 33 33 35 35 34 34 34 32 33 34 34 33 32 34 34 32 26 25 25 23 21 20 25 25 25 23 21 23
13 13 11 15 11 28 33 28 30 29 27 30 32 32 32 35 36 35 35 37 37 36 35 34 34 33 33 33 33 34 36 32 28 27 29 30 29 28 31 27 26 26 23 27
16 19 12 17 18 22 27 29 33 31 26 29 31 33 34 37 37 37 36 37 37 38 34 32 31 32 33 31 32 33 31 31 31 31 30 33 34 30 31 30 29 27 27 31
17 18 16 20 22 28 27 28 27 32 31 33 32 32 34 35 37 36 37 38 38 38 39 34 33 33 33 31 31 31 30 31 34 35 35 35 37 32 30 31 31 29 28 31
21 17 13 15 23 23 27 29 30 33 32 31 28 30 34 36 38 36 39 38 38 37 36 38 37 35 35 35 36 35 34 35 36 38 40 45 42 34 30 32 30 29 29 28
Wind_Direction
204 209 213 218 219 230 241 230 233 242 243 212 219 245 239 237 237 234 233 241 233 227 226 224 216 217 215 211 204 202 204 206 203 203 205 207 212 214 217 215 217 220 225 223
215 215 220 224 234 226 236 247 250 237 228 228 232 243 244 242 238 224 231 241 244 234 232 227 218 212 211 210 208 204 206 213 212 210 210 214 215 219 222 225 225 230 230 232
223 215 222 229 232 240 224 235 238 248 237 252 243 249 246 233 235 235 238 244 245 244 233 226 228 205 206 214 209 215 213 214 216 211 217 217 220 222 224 228 229 228 232 233
231 235 220 222 228 234 241 221 244 251 243 229 211 249 235 231 241 236 236 228 235 240 240 237 226 227 215 211 211 214 217 219 220 223 216 218 219 220 222 225 227 227 238 234
221 230 237 235 217 228 238 242 221 242 240 245 248 250 254 240 232 229 225 227 231 234 233 238 237 236 231 224 219 220 222 222 220 222 229 220 220 225 225 227 226 228 230 241
272 299 270 246 245 220 234 245 246 247 241 244 237 244 247 246 238 244 249 232 217 221 232 234 240 243 239 240 238 229 223 225 223 220 224 232 235 233 226 224 225 221 224 231
232 236 257 257 238 235 225 224 217 220 221 230 229 237 242 239 255 252 305 240 212 215 224 230 247 245 241 239 239 238 235 231 228 231 229 233 243 229 229 223 225 225 223 221
287 210 216 222 239 219 211 209 211 209 218 233 225 234 233 236 250 306 264 302 180 192 209 236 245 234 242 242 244 241 239 240 235 233 239 238 230 237 231 230 222 226 228 231
332 74 337 343 310 245 221 216 226 261 279 275 251 218 234 244 185 192 173 225 357 262 195 256 273 282 280 266 249 252 251 242 238 236 237 239 239 234 235 232 230 225 229 225
333 302 309 306 224 262 311 322 207 221 215 243 250 249 241 219 231 228 104 77 60 29 1 317 281 294 288 279 279 271 262 253 244 240 234 235 234 235 240 231 233 230 225 226
343 313 291 291 206 72 339 268 318 327 239 238 235 245 256 23 52 143 119 103 84 74 35 321 305 310 326 342 330 312 292 268 258 251 238 232 236 237 236 234 235 227 225 227
343 316 307 328 309 336 82 52 54 311 356 238 252 254 28 84 66 59 88 85 65 8 337 320 306 312 327 338 347 342 340 313 277 262 254 249 239 237 240 241 239 242 229 233
329 317 307 205 185 72 68 123 144 167 197 252 280 204 161 139 92 54 34 8 349 349 328 310 314 310 320 324 331 332 330 328 317 295 268 261 256 245 240 239 238 241 242 233
295 300 301 302 309 287 297 301 203 160 249 270 251 270 282 306 323 307 306 310 290 293 297 302 303 306 310 313 320 318 318 320 324 318 299 277 260 263 261 249 242 239 238 234
358 285 306 313 315 311 299 292 288 281 266 253 268 276 284 288 302 303 306 290 285 286 283 283 288 298 307 305 305 307 305 312 316 315 310 293 274 242 234 246 248 247 244 242
336 286 316 301 288 278 279 288 292 280 274 274 276 274 284 287 286 282 284 281 278 277 270 279 278 282 286 291 292 297 302 306 307 308 307 305 294 278 258 244 252 251 247 242
285 278 293 283 297 323 293 268 267 259 259 266 273 281 288 291 296 294 292 288 289 283 279 277 276 279 281 285 290 292 295 299 302 301 306 304 296 287 280 256 251 250 255 244
260 261 276 282 292 268 262 304 295 276 273 281 287 280 283 298 304 301 298 299 289 281 282 281 275 276 278 283 288 291 289 289 293 291 295 301 302 296 292 271 254 257 252 244
245 240 253 258 264 279 286 284 354 321 310 304 283 281 292 312 321 297 296 3 356 338 324 282 276 277 286 291 288 287 285 284 285 283 284 288 295 297 294 292 266 260 263 254
272 239 248 267 285 281 291 339 349 307 298 317 287 285 318 326 312 307 315 321 302 295 291 291 276 276 284 289 288 285 284 280 283 281 277 278 284 289 288 293 288 261 265 257
214 240 244 251 256 267 280 304 310 261 292 334 318 312 313 312 308 302 300 299 295 290 284 277 271 270 269 273 280 276 274 273 274 277 274 274 277 283 281 286 290 271 256 254
286 276 267 262 257 264 318 337 336 314 307 307 308 304 300 297 294 291 293 292 290 289 284 277 273 269 267 267 265 264 265 267 272 270 267 265 267 270 272 280 287 278 253 243
274 271 271 274 274 298 300 299 295 298 303 302 299 296 295 294 293 292 293 292 291 290 287 279 273 270 267 265 261 259 257 264 266 268 269 263 266 275 269 274 275 273 252 237
291 292 287 279 273 279 285 293 294 293 296 300 300 298 294 290 292 294 295 292 291 289 289 283 278 273 270 267 263 258 259 259 263 266 266 269 273 272 270 266 264 262 254 236
289 296 289 288 289 288 286 287 295 298 300 298 297 298 295 294 293 293 294 292 291 290 287 284 276 273 270 269 265 263 261 259 258 260 263 263 266 270 268 264 262 261 257 247
270 270 272 275 283 287 286 292 292 295 300 302 303 300 296 296 294 295 294 293 290 289 290 285 281 277 275 272 270 267 263 260 257 255 256 262 268 265 261 258 257 253 246 244
Height
1441 1445 1436 1421 1421 1420 1412 1411 1410 1405 1402 1408 1415 1416 1417 1420 1419 1423 1426 1424 1422 1424 1428 1432 1436 1441 1445 1449 1454 1459 1462 1465 1470 1474 1477 1482 1485 1490 1492 1494 1497 1498 1500 1503
1430 1428 1421 1424 1416 1418 1415 1412 1403 1397 1396 1402 1407 1413 1413 1412 1412 1415 1420 1422 1420 1421 1423 1425 1429 1435 1439 1443 1448 1453 1457 1460 1463 1468 1472 1476 1480 1483 1486 1487 1489 1490 1493 1496
1418 1407 1422 1421 1419 1414 1411 1412 1408 1404 1405 1404 1410 1415 1410 1405 1406 1409 1414 1419 1421 1420 1420 1423 1425 1429 1435 1439 1442 1448 1453 1457 1459 1462 1466 1471 1475 1478 1480 1480 1481 1483 1486 1489
1415 1411 1406 1414 1415 1415 1411 1405 1411 1412 1414 1416 1411 1418 1403 1402 1402 1404 1407 1413 1417 1417 1416 1418 1422 1424 1429 1434 1439 1443 1447 1451 1454 1455 1459 1461 1464 1466 1469 1472 1475 1477 1478 1481
1410 1408 1406 1400 1405 1410 1407 1407 1409 1415 1416 1419 1413 1414 1392 1384 1387 1387 1392 1401 1406 1411 1413 1415 1417 1420 1423 1428 1433 1436 1439 1442 1446 1449 1450 1452 1455 1459 1463 1466 1469 1470 1471 1472
1422 1412 1407 1403 1400 1405 1412 1413 1412 1414 1413 1420 1408 1411 1397 1388 1385 1386 1386 1389 1396 1402 1407 1410 1414 1418 1421 1424 1426 1428 1430 1434 1437 1440 1442 1442 1445 1449 1455 1459 1460 1463 1464 1464
1417 1416 1412 1408 1405 1405 1413 1417 1434 1436 1432 1411 1398 1408 1390 1378 1378 1382 1383 1383 1389 1397 1403 1409 1413 1415 1417 1418 1420 1422 1424 1427 1430 1431 1432 1435 1437 1443 1445 1449 1452 1453 1455 1456
1421 1413 1408 1406 1404 1398 1403 1413 1417 1419 1402 1396 1388 1396 1373 1380 1382 1382 1387 1392 1396 1401 1405 1408 1410 1412 1413 1415 1415 1417 1419 1421 1423 1426 1426 1427 1431 1432 1436 1439 1443 1444 1446 1447
1431 1419 1418 1406 1403 1404 1397 1403 1407 1411 1400 1395 1376 1370 1371 1373 1375 1381 1388 1393 1396 1400 1404 1406 1410 1413 1413 1414 1413 1414 1414 1414 1416 1418 1420 1421 1422 1425 1427 1431 1434 1438 1439 1441
1443 1429 1427 1418 1413 1410 1416 1406 1414 1420 1428 1425 1392 1377 1369 1367 1369 1375 1389 1399 1404 1406 1408 1409 1412 1413 1413 1412 1411 1410 1409 1410 1412 1413 1414 1416 1418 1421 1422 1426 1427 1429 1432 1433
1445 1440 1426 1420 1414 1429 1427 1417 1421 1422 1405 1408 1405 1389 1369 1383 1379 1383 1394 1402 1407 1410 1411 1412 1413 1412 1412 1410 1407 1406 1406 1407 1408 1409 1409 1411 1413 1415 1417 1418 1420 1422 1425 1425
1453 1449 1434 1418 1422 1420 1428 1440 1441 1435 1434 1410 1409 1396 1389 1395 1397 1394 1398 1405 1409 1413 1412 1412 1412 1412 1410 1409 1407 1406 1404 1404 1405 1405 1405 1405 1405 1408 1411 1412 1413 1413 1416 1418
1458 1454 1439 1419 1421 1423 1429 1437 1438 1442 1447 1434 1423 1402 1396 1399 1401 1405 1407 1409 1410 1412 1411 1412 1411 1411 1410 1409 1407 1405 1404 1403 1402 1401 1401 1401 1400 1401 1403 1405 1407 1406 1408 1410
1465 1456 1446 1440 1445 1438 1429 1424 1426 1438 1440 1422 1418 1407 1411 1410 1404 1404 1407 1410 1413 1415 1413 1412 1411 1411 1410 1408 1406 1404 1403 1401 1399 1397 1397 1396 1396 1397 1397 1398 1399 1400 1401 1403
1465 1462 1448 1442 1436 1436 1430 1425 1420 1418 1416 1422 1414 1404 1398 1402 1403 1404 1407 1409 1408 1408 1409 1410 1409 1408 1406 1405 1404 1403 1401 1399 1397 1395 1394 1393 1390 1390 1390 1391 1392 1394 1396 1398
1463 1463 1455 1456 1441 1430 1425 1422 1420 1416 1413 1411 1407 1402 1395 1395 1398 1400 1402 1403 1402 1403 1405 1406 1405 1404 1403 1403 1402 1400 1399 1397 1395 1393 1391 1389 1387 1384 1385 1386 1387 1388 1390 1392
1461 1463 1461 1451 1434 1431 1435 1422 1411 1410 1408 1406 1402 1396 1392 1394 1396 1398 1397 1397 1398 1399 1401 1401 1402 1401 1399 1398 1397 1396 1395 1394 1392 1389 1387 1385 1382 1381 1381 1380 1381 1381 1383 1384
1455 1457 1462 1451 1444 1440 1413 1410 1411 1412 1408 1405 1401 1396 1393 1393 1394 1394 1394 1394 1395 1396 1397 1397 1396 1396 1395 1395 1394 1392 1391 1390 1388 1386 1384 1383 1380 1377 1376 1375 1375 1375 1376 1377
1447 1449 1456 1450 1433 1420 1412 1403 1406 1405 1403 1398 1395 1395 1396 1396 1395 1393 1393 1394 1395 1396 1395 1394 1393 1392 1392 1390 1389 1387 1386 1385 1383 1382 1380 1379 1377 1374 1370 1370 1370 1369 1370 1371
1445 1447 1450 1442 1439 1425 1403 1404 1407 1408 1407 1391 1395 1396 1397 1399 1398 1392 1391 1395 1398 1397 1396 1394 1391 1390 1388 1386 1384 1381 1379 1379 1377 1377 1375 1374 1373 1371 1368 1366 1365 1364 1364 1365
1444 1449 1447 1437 1433 1417 1406 1405 1406 1413 1408 1402 1404 1403 1400 1400 1401 1398 1394 1391 1390 1389 1388 1387 1385 1383 1381 1381 1378 1374 1373 1372 1371 1371 1370 1369 1367 1366 1364 1361 1360 1358 1359 1360
1433 1433 1432 1434 1428 1420 1408 1408 1414 1410 1407 1405 1403 1402 1399 1398 1396 1394 1390 1386 1382 1378 1377 1376 1374 1373 1372 1372 1370 1367 1365 1364 1364 1363 1362 1361 1361 1359 1357 1357 1355 1353 1354 1355
1431 1428 1428 1427 1420 1410 1410 1411 1410 1407 1405 1404 1401 1398 1395 1390 1387 1385 1382 1378 1373 1369 1366 1364 1363 1361 1360 1359 1359 1357 1355 1357 1355 1354 1352 1351 1351 1351 1349 1350 1349 1348 1348 1350
1424 1424 1421 1420 1416 1411 1409 1408 1406 1404 1401 1399 1397 1393 1390 1384 1380 1377 1375 1370 1365 1360 1355 1354 1352 1350 1348 1348 1347 1347 1348 1349 1348 1345 1343 1340 1342 1341 1341 1342 1341 1342 1341 1344
1429 1426 1421 1417 1411 1409 1407 1404 1401 1398 1395 1393 1390 1387 1382 1377 1372 1370 1365 1361 1356 1352 1348 1344 1341 1339 1337 1338 1337 1337 1338 1339 1338 1336 1334 1331 1331 1332 1333 1333 1333 1334 1335 1338
1422 1418 1416 1407 1405 1404 1400 1397 1395 1391 1388 1386 1383 1379 1376 1373 1367 1363 1357 1353 1349 1344 1340 1335 1332 1329 1327 1327 1326 1326 1328 1327 1325 1324 1323 1321 1320 1323 1324 1325 1324 1326 1329 1332